This is the latest recevied weather packets stored in our database for station/object KD4WLE. If no packets are shown the sender has not sent any weather packets the latest 10 day(s).
| Time | Temp. | Humidity | Pressure | Rain* | Wind** | Luminosity | Snow |
|---|---|---|---|---|---|---|---|
| 1777501191 | 28.89° C | 63% | 1012.1 hPa | 0 mm | - | 67 W/m² | - |
| 1777500889 | 28.89° C | 63% | 1012.1 hPa | 0 mm | - | 195 W/m² | - |
| 1777500586 | 29.44° C | 63% | 1012.2 hPa | 0 mm | - | 207 W/m² | - |
| 1777500283 | 29.44° C | 63% | 1012.2 hPa | 0 mm | - | 221 W/m² | - |
| 1777499979 | 29.44° C | 63% | 1012.1 hPa | 0 mm | - | 237 W/m² | - |
| 1777499676 | 29.44° C | 62% | 1011.9 hPa | 0 mm | - | 253 W/m² | - |
| 1777499373 | 30° C | 61% | 1012.2 hPa | 0 mm | - | 269 W/m² | - |
| 1777499071 | 29.44° C | 60% | 1012.2 hPa | 0 mm | - | 284 W/m² | - |
| 1777498767 | 30° C | 58% | 1012.3 hPa | 0 mm | - | 300 W/m² | - |
| 1777498464 | 30° C | 59% | 1012.4 hPa | 0 mm | - | 315 W/m² | - |
| 1777498160 | 30.56° C | 58% | 1012.2 hPa | 0 mm | - | 333 W/m² | - |
| 1777497858 | 30° C | 57% | 1012.2 hPa | 0 mm | - | 351 W/m² | - |
| 1777497554 | 31.11° C | 55% | 1012.3 hPa | 0 mm | - | 387 W/m² | - |
| 1777497250 | 30.56° C | 55% | 1012.4 hPa | 0 mm | - | 415 W/m² | - |
| 1777496947 | 30.56° C | 56% | 1012.4 hPa | 0 mm | - | 359 W/m² | - |
| 1777496644 | 30.56° C | 55% | 1012.5 hPa | 0 mm | - | 422 W/m² | - |
| 1777496340 | 30.56° C | 57% | 1012.5 hPa | 0 mm | - | 484 W/m² | - |
| 1777496036 | 30.56° C | 56% | 1012.6 hPa | 0 mm | - | 340 W/m² | - |
| 1777495732 | 30.56° C | 57% | 1012.7 hPa | 0 mm | - | 481 W/m² | - |
| 1777495429 | 30° C | 57% | 1012.7 hPa | 0 mm | - | 505 W/m² | - |
| 1777495125 | 30.56° C | 56% | 1012.4 hPa | 0 mm | - | 486 W/m² | - |
| 1777494823 | 31.11° C | 55% | 1012.7 hPa | 0 mm | - | 509 W/m² | - |
| 1777494519 | 31.11° C | 54% | 1012.9 hPa | 0 mm | - | 535 W/m² | - |
| 1777494217 | 30.56° C | 53% | 1013 hPa | 0 mm | - | 550 W/m² | - |
| 1777493914 | 30.56° C | 54% | 1013.3 hPa | 0 mm | - | 505 W/m² | - |
* Rain latest hour (hover to see other rain measurements)
** Current wind speed in m/s (hover to see current wind gust speed)